Weather History for Chitose AB, Japan

Change the Weather History Date:

Friday, January 18, 2013

  Actual Average Record
Temperature  
Mean Temperature 7 °F -  
Max Temperature 19 °F 28 °F 37 °F (1997)
Min Temperature -5 °F 8 °F -9 °F (2006)
Degree Days  
Heating Degree Days 58    
Moisture  
Dew Point 6 °F    
Average Humidity 81    
Maximum Humidity 92    
Minimum Humidity 53    
Precipitation  
Precipitation 0.00 in - - ()
Sea Level Pressure  
Sea Level Pressure 29.81 in    
Wind  
Wind Speed 6 mph ()    
Max Wind Speed 20 mph    
Max Gust Speed -    
Visibility 4.9 miles    
Events Snow    
Averages and records for this station are not official NWS values.
T = Trace of Precipitation, MM = Missing Value Source: Averaged Metar Reports

Daily Weather History Graph

Daily Weather History Graph

Search for Another Location

Airport:

Trip Planner

Search our weather history database for the weather conditions in past years. The results will help you decide how hot, cold, wet, or windy it might be!

Date:

Astronomy

Jan. 18, 2013 Rise Set
Actual Time 6:59 AM JST 4:27 PM JST
Civil Twilight 6:28 AM JST 4:59 PM JST
Nautical Twilight 5:53 AM JST 5:33 PM JST
Astronomical Twilight 5:20 AM JST 6:07 PM JST
Moon 10:06 AM JST (1/18) 11:52 PM JST (1/18)
Length of Visible Light 10h 30m
Length of Day
9h 28m
Waxing Crescent, 41% of the Moon is Illuminated
Jan 18
Waxing Crescent
Jan 19
First Quarter
Jan 27
Full
Feb 3
Last Quarter
Feb 10
New

Hourly Weather History & Observations

Time (JST) Temp. Windchill Dew Point Humidity Pressure Visibility Wind Dir Wind Speed Gust Speed Precip Events Conditions
12:00 AM -0.4 °F -12.0 °F -4.0 °F 85% 29.89 in 5.0 mi NNW 5.8 mph - N/A Snow Light Snow Showers
12:30 AM -2.2 °F -10.4 °F -4.0 °F 92% 29.89 in 5.0 mi NNW 3.5 mph - N/A Snow Light Snow Showers
1:00 AM -0.4 °F - -4.0 °F 85% 29.89 in 6.2 mi Variable 1.2 mph - N/A Snow Light Snow Showers
1:30 AM -0.4 °F -12.0 °F -4.0 °F 85% 29.89 in 6.2 mi West 5.8 mph - N/A Snow Light Snow Showers
2:00 AM 1.4 °F -6.2 °F -0.4 °F 92% 29.89 in 6.2 mi NW 3.5 mph - N/A   Scattered Clouds
2:30 AM 1.4 °F -6.2 °F -2.2 °F 85% 29.89 in 6.2 mi NNW 3.5 mph - N/A   Scattered Clouds
3:00 AM -0.4 °F -13.4 °F -4.0 °F 85% 29.86 in 6.2 mi NW 6.9 mph - N/A   Scattered Clouds
3:30 AM -2.2 °F -14.2 °F -4.0 °F 92% 29.86 in 6.2 mi NW 5.8 mph - N/A   Partly Cloudy
4:00 AM -2.2 °F - -5.8 °F 85% 29.86 in 6.2 mi NNW 2.3 mph - N/A   Partly Cloudy
4:30 AM -2.2 °F -10.4 °F -5.8 °F 85% 29.83 in 6.2 mi NNW 3.5 mph - N/A   Partly Cloudy
5:00 AM -5.8 °F - -9.4 °F 84% 29.83 in 6.2 mi Calm Calm - N/A   Partly Cloudy
5:30 AM -4.0 °F - -7.6 °F 85% 29.83 in 6.2 mi Variable 2.3 mph - N/A   Scattered Clouds
6:00 AM -5.8 °F - -9.4 °F 84% 29.83 in 6.2 mi SSE 2.3 mph - N/A   Partly Cloudy
6:30 AM -4.0 °F -12.4 °F -7.6 °F 85% 29.83 in 6.2 mi North 3.5 mph - N/A   Scattered Clouds
7:00 AM -5.8 °F - -9.4 °F 84% 29.83 in 6.2 mi Variable 1.2 mph - N/A   Partly Cloudy
7:30 AM -5.8 °F - -9.4 °F 84% 29.83 in 6.2 mi Variable 2.3 mph - N/A   Partly Cloudy
8:00 AM -4.0 °F -12.4 °F -5.8 °F 92% 29.83 in 6.2 mi SSE 3.5 mph - N/A   Partly Cloudy
8:30 AM 5.0 °F - 1.4 °F 85% 29.83 in 6.2 mi North 1.2 mph - N/A Snow Light Snow Showers
9:00 AM 5.0 °F - 3.2 °F 92% 29.83 in 6.2 mi ENE 2.3 mph - N/A Snow Light Snow Showers
9:30 AM 8.6 °F 2.0 °F 5.0 °F 85% 29.83 in 6.2 mi NNW 3.5 mph - N/A Snow Light Snow Showers
10:00 AM 12.2 °F - 6.8 °F 79% 29.83 in 6.2 mi Variable 1.2 mph - N/A Snow Light Snow Showers
10:23 AM 14.0 °F - 8.6 °F 79% 29.80 in - NW 2.3 mph - N/A Snow Light Snow Showers
10:30 AM 14.0 °F 8.2 °F 10.4 °F 86% 29.80 in - NW 3.5 mph - N/A Snow Light Snow Showers
10:33 AM 14.0 °F 8.2 °F 10.4 °F 86% 29.80 in - NNW 3.5 mph - N/A Snow Light Snow Showers
10:41 AM 14.0 °F 8.2 °F 10.4 °F 86% 29.80 in 3.1 mi NNW 3.5 mph - N/A Snow Light Snow Showers
11:00 AM 15.8 °F 7.2 °F 12.2 °F 86% 29.80 in 6.2 mi NNW 5.8 mph - N/A   Scattered Clouds
11:12 AM 19.4 °F 7.9 °F 14.0 °F 80% 29.80 in - NNW 10.4 mph - N/A Snow Light Snow Showers
11:15 AM 19.4 °F 7.2 °F 14.0 °F 80% 29.80 in - NNW 11.5 mph - N/A Snow Light Snow Showers
11:17 AM 19.4 °F 7.2 °F 14.0 °F 80% 29.80 in 0.9 mi NNW 11.5 mph - N/A Snow Light Snow Showers
11:20 AM 19.4 °F 7.2 °F 14.0 °F 80% 29.80 in 0.6 mi NNW 11.5 mph - N/A Snow Snow Showers
11:24 AM 19.4 °F 7.2 °F 15.8 °F 86% 29.80 in 1.0 mi NNW 11.5 mph - N/A Snow Light Snow Showers
11:26 AM 19.4 °F 7.2 °F 15.8 °F 86% 29.80 in 1.2 mi NNW 11.5 mph - N/A Snow Light Snow Showers
11:30 AM 19.4 °F 6.6 °F 15.8 °F 86% 29.80 in 1.5 mi NNW 12.7 mph - N/A Snow Light Snow Showers
11:32 AM 19.4 °F 6.0 °F 15.8 °F 86% 29.80 in - NNW 13.8 mph - N/A Snow Light Snow Showers
11:35 AM 19.4 °F 6.0 °F 14.0 °F 80% 29.77 in 6.2 mi NNW 13.8 mph - N/A Snow Light Snow Showers
12:00 PM 17.6 °F 1.3 °F 12.2 °F 79% 29.77 in 6.2 mi North 19.6 mph - N/A Snow Light Snow Showers
12:30 PM 17.6 °F 3.2 °F 10.4 °F 73% 29.77 in 6.2 mi North 15.0 mph - N/A   Mostly Cloudy
1:00 PM 17.6 °F 5.0 °F 12.2 °F 79% 29.77 in 6.2 mi North 11.5 mph - N/A   Mostly Cloudy
1:30 PM 17.6 °F 4.3 °F 10.4 °F 73% 29.77 in 6.2 mi North 12.7 mph - N/A   Mostly Cloudy
2:00 PM 17.6 °F 3.2 °F 8.6 °F 68% 29.77 in 6.2 mi North 15.0 mph - N/A   Scattered Clouds
2:30 PM 17.6 °F 2.7 °F 6.8 °F 63% 29.77 in 6.2 mi North 16.1 mph - N/A   Scattered Clouds
3:00 PM 17.6 °F 4.3 °F 8.6 °F 68% 29.77 in 6.2 mi North 12.7 mph - N/A   Partly Cloudy
3:30 PM 17.6 °F 4.3 °F 6.8 °F 63% 29.77 in 6.2 mi NNW 12.7 mph - N/A   Partly Cloudy
4:00 PM 17.6 °F 5.0 °F 3.2 °F 53% 29.77 in 6.2 mi NW 11.5 mph - N/A   Mostly Cloudy
4:30 PM 17.6 °F 3.2 °F 3.2 °F 53% 29.80 in 6.2 mi NW 15.0 mph - N/A Snow Light Snow Showers
5:00 PM 15.8 °F 2.7 °F 3.2 °F 58% 29.80 in 6.2 mi NW 11.5 mph - N/A   Partly Cloudy
5:30 PM 15.8 °F 2.7 °F 5.0 °F 62% 29.80 in 6.2 mi NW 11.5 mph - N/A Snow Light Snow Showers
5:45 PM 15.8 °F 2.1 °F 5.0 °F 62% 29.80 in - NW 12.7 mph - N/A Snow Light Snow Showers
6:00 PM 15.8 °F 2.7 °F 8.6 °F 73% 29.80 in 3.1 mi NW 11.5 mph - N/A Snow Light Snow Showers
6:05 PM 15.8 °F 2.7 °F 8.6 °F 73% 29.80 in - NW 11.5 mph - N/A Snow Light Snow Showers
6:30 PM 15.8 °F 5.1 °F 10.4 °F 79% 29.80 in 2.8 mi NW 8.1 mph - N/A Snow Light Snow Showers
6:34 PM 15.8 °F 5.1 °F 10.4 °F 79% 29.80 in - NW 8.1 mph - N/A Snow Light Snow Showers
6:38 PM 15.8 °F 6.1 °F 10.4 °F 79% 29.80 in 1.4 mi NW 6.9 mph - N/A Snow Light Snow Showers
6:45 PM 15.8 °F 6.1 °F 10.4 °F 79% 29.80 in 1.5 mi NW 6.9 mph - N/A Snow Light Snow Showers
7:00 PM 15.8 °F 4.2 °F 10.4 °F 79% 29.80 in 1.2 mi WNW 9.2 mph - N/A Snow Light Snow Showers
7:07 PM 15.8 °F 3.4 °F 12.2 °F 86% 29.80 in 1.5 mi WNW 10.4 mph - N/A Snow Light Snow Showers
7:09 PM 15.8 °F 3.4 °F 12.2 °F 86% 29.80 in 1.4 mi WNW 10.4 mph - N/A Snow Light Snow Showers
7:30 PM 15.8 °F 4.2 °F 12.2 °F 86% 29.80 in 1.5 mi NW 9.2 mph - N/A Snow Light Snow Showers
7:34 PM 15.8 °F 5.1 °F 10.4 °F 79% 29.80 in - NW 8.1 mph - N/A Snow Light Snow Showers
7:42 PM 15.8 °F 5.1 °F 12.2 °F 86% 29.80 in 3.1 mi NNW 8.1 mph - N/A Snow Light Snow Showers
7:48 PM 15.8 °F 6.1 °F 12.2 °F 86% 29.80 in - NNW 6.9 mph - N/A Snow Light Snow Showers
7:50 PM 15.8 °F 6.1 °F 12.2 °F 86% 29.83 in - NNW 6.9 mph - N/A Snow Light Snow Showers
8:00 PM 15.8 °F 6.1 °F 12.2 °F 86% 29.83 in - North 6.9 mph - N/A Snow Light Snow Showers
8:21 PM 15.8 °F 8.6 °F 12.2 °F 86% 29.83 in 3.1 mi North 4.6 mph - N/A Snow Light Snow Showers
8:30 PM 14.0 °F 6.5 °F 10.4 °F 86% 29.83 in 6.2 mi North 4.6 mph - N/A Snow Light Snow Showers
9:00 PM 14.0 °F 5.1 °F 10.4 °F 86% 29.83 in 6.2 mi NNW 5.8 mph - N/A Snow Light Snow Showers
9:30 PM 12.2 °F 4.3 °F 8.6 °F 85% 29.83 in 6.2 mi West 4.6 mph - N/A   Scattered Clouds
10:00 PM 10.4 °F 4.0 °F 6.8 °F 85% 29.83 in 6.2 mi East 3.5 mph - N/A   Scattered Clouds
10:30 PM 8.6 °F 0.1 °F 6.8 °F 92% 29.83 in 6.2 mi SSE 4.6 mph - N/A   Mostly Cloudy
11:00 PM 8.6 °F 2.0 °F 6.8 °F 92% 29.83 in 6.2 mi SW 3.5 mph - N/A   Mostly Cloudy
11:30 PM 5.0 °F -2.1 °F 3.2 °F 92% 29.80 in 6.2 mi South 3.5 mph - N/A   Scattered Clouds